Location: Newark
(43.0000°N, 1.6781°W)
Time: 04:53:03
(UTC+00:00)

N. Korean satellite - Pass Details

Date: 11 December 2021
Orbit: 447 x 491 km, 97.3° (Epoch: 25 January)

Event Time Altitude Azimuth Distance (km) Brightness Sun altitude
Rises 04:37:14 0° 27° (NNE) 2,458 10.4 -30.3°
Enters shadow 04:37:51 - 30° (NNE) 2,216 10.2 -30.2°
Exits shadow 04:41:56 20° 87° (E) 1,097 9.0 -29.4°
Maximum altitude 04:42:14 20° 95° (E) 1,089 9.0 -29.4°
Drops below altitude 10° 04:44:49 10° 145° (SE) 1,578 9.6 -28.9°
Sets 04:47:13 0° 162° (SSE) 2,450 10.4 -28.5°
